Benson, United Kingdom

5:35 AM BST on April 27, 2018 (GMT +0100)
Benson Air Base

Weather History for EGUB - August, 2013

Change the Weather History Date:

Thursday, August 22, 2013

  Actual Average Record
Temperature  
Mean Temperature 66 °F -  
Max Temperature 73 °F 65 °F 85 °F (2015)
Min Temperature 60 °F 49 °F 42 °F (2011)
Cooling Degree Days 2    
Growing Degree Days 16 (Base 50)    
Moisture  
Dew Point 61 °F    
Average Humidity 85    
Maximum Humidity 100    
Minimum Humidity 65    
Precipitation  
Precipitation 0.08 in - - ()
Sea Level Pressure  
Sea Level Pressure 30.09 in    
Wind  
Wind Speed 5 mph ()    
Max Wind Speed 13 mph    
Max Gust Speed -    
Visibility 7.0 miles    
Events Rain    
Averages and records for this station are not official NWS values.
T = Trace of Precipitation, MM = Missing Value Source: Averaged Metar Reports

Daily Weather History Graph

Daily Weather History Graph

Search for Another Location

Airport or City:

Astronomy

Aug. 22, 2013 Rise Set
Actual Time 6:00 AM BST 8:12 PM BST
Civil Twilight 5:24 AM BST 8:48 PM BST
Nautical Twilight 4:38 AM BST 9:34 PM BST
Astronomical Twilight 3:45 AM BST 10:26 PM BST
Moon 8:25 PM BST (8/22) 7:50 AM BST (8/22)
Length of Visible Light 15h 24m
Length of Day
14h 11m
Full, 97% of the Moon is Illuminated
Aug 22
Full
Aug 28
Last Quarter
Sep 5
New
Sep 12
First Quarter
Sep 19
Full

Hourly Weather History & Observations

Time (BST) Temp. Dew Point Humidity Pressure Visibility Wind Dir Wind Speed Gust Speed Precip Events Conditions
12:09 AM 60.8 °F 60.8 °F 100% 30.15 in 6.2 mi South 4.6 mph - N/A Rain Light Rain Showers
12:50 AM 61 °F 59 °F 91% 30.16 in 7 mi SE 3.5 mph - - Rain Light Rain
12:50 AM 60.8 °F 59.0 °F 94% 30.15 in 6.2 mi SE 3.5 mph - N/A Rain Light Rain
1:50 AM 60.8 °F 60.8 °F 100% 30.12 in 6.2 mi SSE 3.5 mph - N/A Rain Light Rain
2:50 AM 60.8 °F 60.8 °F 100% 30.12 in - SSE 4.6 mph - N/A   Clear
3:50 AM 60.8 °F 60.8 °F 100% 30.12 in - SSW 4.6 mph - N/A   Clear
4:50 AM 60.8 °F 60.8 °F 100% 30.12 in 6.2 mi South 4.6 mph - N/A   Mostly Cloudy
5:50 AM 60.8 °F 59.0 °F 94% 30.12 in 5.6 mi SE 6.9 mph - N/A Rain Light Rain Showers
6:50 AM 61 °F 60 °F 97% 30.11 in 4 mi South 9.2 mph - - Rain Light Rain
6:50 AM 60.8 °F 60.8 °F 100% 30.09 in 3.7 mi South 9.2 mph - N/A Rain Light Rain
7:50 AM 60.8 °F 60.8 °F 100% 30.12 in 5.0 mi NNW 3.5 mph - N/A   Mostly Cloudy
8:50 AM 62.6 °F 60.8 °F 94% 30.12 in 6.2 mi West 3.5 mph - N/A   Mostly Cloudy
9:50 AM 66 °F 61 °F 80% 30.13 in 9 mi SE 1.2 mph - -   Partly Cloudy
9:50 AM 66.2 °F 60.8 °F 83% 30.12 in 6.2 mi SE 1.2 mph - N/A   Mostly Cloudy
10:50 AM 68.0 °F 62.6 °F 83% 30.12 in 6.2 mi SSW 4.6 mph - N/A   Mostly Cloudy
11:50 AM 68.0 °F 60.8 °F 78% 30.12 in 6.2 mi South 8.1 mph - N/A   Mostly Cloudy
12:50 PM 69.8 °F 60.8 °F 73% 30.09 in 6.2 mi SSE 8.1 mph - N/A   Mostly Cloudy
1:50 PM 71.6 °F 62.6 °F 73% 30.09 in 6.2 mi SE 6.9 mph - N/A   Mostly Cloudy
2:50 PM 73.4 °F 62.6 °F 69% 30.09 in 6.2 mi SE 10.4 mph - N/A   Mostly Cloudy
3:50 PM 72 °F 63 °F 65% 30.08 in 16 mi ESE 8.1 mph - -   Mostly Cloudy
3:50 PM 71.6 °F 62.6 °F 73% 30.06 in 6.2 mi ESE 8.1 mph - N/A   Mostly Cloudy
4:50 PM 71.6 °F 62.6 °F 73% 30.06 in 6.2 mi ESE 11.5 mph - N/A   Mostly Cloudy
5:50 PM 73.4 °F 62.6 °F 69% 30.04 in 6.2 mi ESE 11.5 mph - N/A   Mostly Cloudy
6:50 PM 71 °F 63 °F 68% 30.05 in 12 mi ESE 12.7 mph - -   Scattered Clouds
6:50 PM 71.6 °F 62.6 °F 73% 30.04 in 6.2 mi ESE 12.7 mph - N/A   Scattered Clouds
7:50 PM 69.8 °F 60.8 °F 73% 30.04 in - ESE 9.2 mph - N/A   Clear
8:50 PM 66.2 °F 60.8 °F 83% 30.06 in - SE 6.9 mph - N/A   Clear
9:50 PM 66 °F 63 °F 86% 30.07 in 12 mi ESE 10.4 mph - -   Scattered Clouds
9:50 PM 66.2 °F 62.6 °F 88% 30.06 in - ESE 10.4 mph - N/A   Clear
10:50 PM 64.4 °F 62.6 °F 94% 30.06 in - East 8.1 mph - N/A   Clear
11:50 PM 62.6 °F 60.8 °F 94% 30.04 in - ENE 5.8 mph - N/A   Clear